Wind_Speed
31 31 32 32 32 32 33 33 34 34 34 34 35 35 35 36 36 36 37 37 37 37 37 37 37 37 37 38 38 38 38 38 39 39 39 39 40 40 41 41 42 42 42 43 43 43 43 44 44 44 44 44 44 45 45 45 45 46 46 47 47 47 48 48 48 48 49 49 49 49 50 50 50 50 50 50 51 51 50 50 50 50 50 50 50 50
32 32 33 33 33 33 33 34 34 35 35 35 35 35 35 35 36 36 37 37 37 38 38 38 38 38 38 38 38 38 38 39 39 39 40 40 40 41 41 42 42 43 43 43 43 44 44 44 44 44 45 45 45 45 46 46 46 47 47 47 48 48 48 49 49 49 50 50 50 51 51 51 51 51 52 52 52 52 52 52 52 52 51 51 50 50
33 34 34 34 34 34 34 34 35 36 36 36 36 36 36 36 36 36 36 37 37 38 38 38 38 38 38 38 38 38 39 39 39 40 40 40 41 41 41 42 42 43 43 43 43 44 44 44 44 44 45 45 45 46 46 46 47 47 47 48 48 49 49 49 50 50 50 51 51 51 52 52 52 52 53 53 53 53 53 53 53 53 53 53 52 52
35 35 35 35 35 35 35 35 36 36 36 37 37 37 37 37 37 37 37 37 37 37 38 38 38 38 38 38 38 38 39 39 39 39 40 40 41 41 41 42 42 42 42 43 43 43 43 44 44 44 45 45 45 46 46 47 47 47 48 48 49 49 49 50 50 50 51 51 51 52 52 52 53 53 53 54 54 54 54 54 54 54 54 54 54 54
36 36 36 36 36 35 36 36 37 37 37 37 37 37 38 37 37 37 37 38 38 38 38 38 38 38 38 39 39 39 39 39 39 39 40 40 40 41 41 41 42 42 42 42 43 43 43 43 44 44 45 45 46 46 47 47 48 48 48 49 49 50 50 50 51 51 51 52 52 52 53 53 53 53 54 54 54 54 55 55 55 55 55 55 55 55
37 37 37 37 37 36 37 37 37 38 38 38 38 38 38 38 38 38 38 38 38 38 38 38 38 39 39 39 39 39 39 39 39 39 40 40 40 41 41 41 41 42 42 42 42 42 43 43 43 44 44 45 45 46 47 47 48 48 49 49 50 50 51 51 51 52 52 52 52 53 53 53 54 54 54 54 55 55 55 55 55 56 56 56 56 56
38 38 38 38 38 37 37 38 38 39 39 39 39 39 39 39 39 39 39 39 39 38 39 39 39 39 39 39 39 39 39 39 40 40 40 40 40 40 41 41 41 41 41 41 42 42 42 42 43 43 44 44 45 46 46 47 48 48 49 49 50 50 51 51 52 52 52 53 53 53 53 54 54 54 55 55 55 55 55 56 56 56 56 57 57 57
38 38 39 39 38 38 38 39 39 40 40 40 40 40 40 40 40 40 39 39 39 39 39 39 39 39 39 40 40 40 40 40 40 40 40 40 40 40 40 40 40 40 41 41 41 41 41 42 42 42 43 44 45 45 46 47 48 48 49 50 50 51 51 51 52 52 53 53 53 54 54 54 54 55 55 55 55 56 56 56 56 56 57 57 57 57
38 39 39 39 39 39 39 39 40 41 41 41 41 41 41 41 40 40 40 40 40 40 40 40 40 40 40 40 40 40 40 41 41 41 41 40 40 40 40 40 40 40 40 40 40 41 41 41 42 42 43 44 44 45 46 47 48 48 49 50 50 51 51 52 52 52 53 53 53 54 54 54 54 55 55 55 56 56 56 56 57 57 57 57 57 57
39 39 39 39 40 40 39 39 40 41 42 42 42 42 42 42 42 41 41 41 41 41 41 41 41 41 40 40 41 41 41 41 41 41 41 41 41 40 40 40 40 40 40 40 40 40 41 41 42 42 43 44 45 45 46 47 48 49 49 50 50 51 51 51 52 52 53 53 53 53 54 54 54 54 55 55 55 56 56 56 57 57 57 57 58 58
39 40 39 39 40 40 40 40 41 41 42 42 42 43 43 44 43 43 42 41 41 42 42 42 42 42 41 41 41 41 41 41 42 42 41 41 41 40 40 40 40 40 40 40 41 41 41 42 42 43 44 44 45 46 47 47 48 49 49 50 50 51 51 51 52 52 52 52 53 53 53 53 54 54 54 55 55 55 56 56 57 57 57 58 58 58
40 40 40 40 40 40 41 41 41 42 42 42 42 43 43 44 45 44 44 43 43 43 43 43 43 43 43 42 42 42 42 42 42 42 42 41 41 41 41 41 41 41 41 41 41 41 42 42 43 44 44 45 46 46 47 47 48 49 49 49 50 50 51 51 51 51 51 52 52 52 52 53 53 53 54 54 54 55 55 56 56 57 57 58 58 58
40 40 40 40 40 40 41 41 42 42 43 43 43 43 44 44 45 45 45 45 45 45 45 44 44 44 44 44 43 43 43 43 43 43 42 42 41 41 41 41 41 42 42 42 42 42 43 43 44 44 45 45 46 46 47 47 48 48 48 48 49 49 49 50 50 50 50 51 51 51 51 52 52 53 53 53 54 54 55 55 56 57 57 58 58 59
40 40 40 40 40 41 41 42 42 42 43 43 44 44 44 45 45 45 45 46 46 46 46 46 46 45 45 44 44 44 44 44 44 44 43 42 42 42 42 42 43 43 43 43 43 43 44 45 45 46 46 46 46 47 47 47 47 47 47 47 47 48 48 48 48 49 49 49 50 50 50 51 51 52 52 53 53 54 54 55 56 56 57 58 58 59
40 40 40 40 40 41 41 42 42 42 43 44 44 45 45 45 45 46 46 46 46 47 47 47 47 46 45 45 45 45 45 45 45 45 44 44 43 43 43 44 44 44 44 45 45 45 45 46 46 47 47 47 47 47 47 46 46 46 46 46 46 46 46 46 47 47 47 48 48 49 50 50 51 51 52 52 53 54 54 55 56 57 57 58 59 59
40 40 40 40 40 41 41 42 42 43 43 44 44 45 45 45 46 46 46 47 47 48 48 48 48 47 46 46 46 46 46 46 47 46 46 45 44 44 44 45 46 46 46 46 47 47 47 48 48 48 48 48 48 47 47 46 46 45 45 45 44 44 44 44 45 45 46 46 47 48 49 49 50 51 51 52 53 54 55 55 56 57 58 58 59 60
39 39 40 40 40 41 41 42 42 43 43 44 45 45 45 46 46 46 47 47 48 48 48 49 49 48 48 47 46 46 47 47 48 48 47 46 46 45 46 47 47 48 48 48 48 49 49 49 49 49 49 49 48 48 47 47 46 45 45 44 44 43 43 43 43 44 44 45 46 47 47 48 49 50 51 52 53 54 55 56 57 57 58 59 60 60
39 39 40 40 40 41 41 41 42 43 44 44 45 45 45 46 46 47 47 47 48 48 49 49 49 49 49 48 47 47 48 48 49 49 49 48 47 47 47 48 49 50 50 50 50 50 50 51 51 50 50 50 49 48 48 47 47 46 45 44 44 43 43 43 43 43 44 44 45 46 47 48 49 50 51 52 53 54 55 56 57 58 59 59 60 61
39 39 40 40 40 41 41 41 42 43 44 44 45 45 45 46 46 47 47 47 48 48 49 49 49 49 49 49 48 47 48 49 49 50 50 50 49 49 49 50 51 52 52 52 51 51 52 52 52 51 51 50 50 49 48 48 47 46 45 45 44 44 43 43 43 43 44 45 45 46 47 48 49 50 51 52 53 55 56 57 58 59 59 60 61 61
38 39 39 40 40 40 41 41 42 43 44 45 45 45 46 46 46 47 47 47 48 48 49 49 49 49 49 49 48 48 48 49 50 51 51 51 51 51 51 52 52 53 53 53 53 53 53 53 53 52 52 51 51 50 49 48 47 47 46 45 45 44 44 44 44 44 45 46 46 47 48 49 50 51 52 53 54 56 57 58 58 59 60 60 61 62
38 38 39 40 40 40 41 41 42 43 44 45 45 46 46 46 46 46 47 47 47 48 48 49 49 49 49 48 48 47 48 48 49 51 52 52 52 52 52 53 54 55 55 54 54 54 54 54 54 54 53 52 51 51 50 49 48 47 47 46 46 45 45 45 45 46 46 47 48 49 50 51 52 53 53 54 55 56 57 58 59 60 60 61 61 62
38 38 39 40 40 40 41 41 42 42 43 44 45 45 46 46 46 47 47 47 47 48 48 48 49 48 48 48 47 47 47 48 49 51 52 53 54 53 54 55 55 56 56 56 55 55 55 55 55 54 54 53 52 51 50 49 49 48 47 47 47 46 47 47 47 48 48 49 50 50 51 52 52 53 54 54 55 56 57 58 59 59 60 61 61 62
38 38 38 39 40 40 41 41 42 42 43 44 44 45 46 46 46 47 47 47 47 48 48 48 48 48 47 47 47 47 47 48 49 51 53 54 55 55 55 56 56 57 57 57 56 56 56 56 56 55 54 54 53 52 51 50 49 49 48 48 48 48 48 49 49 49 50 50 51 51 52 52 52 53 53 54 54 55 56 57 57 58 59 60 60 61
38 38 38 39 39 40 40 41 42 42 43 44 44 45 46 46 47 47 47 47 47 48 48 48 48 48 47 47 47 47 48 48 49 51 53 55 56 56 56 56 57 57 58 57 57 57 57 57 56 56 55 54 53 52 51 51 50 50 50 50 50 50 50 51 51 51 51 52 52 52 52 52 52 52 52 53 53 54 54 55 56 57 57 58 59 60
38 38 38 39 39 40 40 41 42 42 43 43 44 45 46 46 46 47 47 47 47 48 48 49 48 48 48 48 48 48 48 49 49 51 53 55 56 57 57 57 57 58 59 58 58 58 58 58 57 56 55 55 54 53 53 52 52 52 52 52 52 52 52 52 53 53 52 52 52 52 52 52 52 52 52 52 53 53 53 54 55 55 56 57 58 59
38 38 38 39 39 40 40 41 41 42 42 43 44 44 45 45 46 46 46 46 47 47 48 48 48 48 48 48 48 48 48 49 50 51 52 55 56 57 57 57 58 59 59 59 59 59 59 59 58 57 56 56 55 54 54 54 54 54 54 54 54 54 54 54 54 54 54 53 53 53 52 52 52 52 52 52 52 52 53 53 54 55 55 56 57 58
37 38 38 39 39 40 40 40 40 41 41 42 43 43 44 45 45 45 45 46 46 47 48 48 48 49 49 49 49 49 49 49 49 50 52 54 56 57 58 58 58 59 60 60 60 59 59 59 59 58 57 56 56 56 55 55 55 56 56 56 56 56 56 56 56 55 55 54 54 54 53 53 53 52 52 52 52 52 52 53 53 54 54 55 56 58
37 37 38 38 39 39 39 39 39 40 40 40 41 42 43 44 44 44 45 45 46 46 47 47 48 49 49 49 49 49 49 49 49 50 52 54 56 57 58 58 59 60 60 61 61 60 59 59 59 59 58 58 57 57 57 57 58 58 58 58 58 58 58 57 57 56 56 55 55 54 54 53 52 52 51 51 51 51 51 51 52 52 53 54 55 57
36 37 37 37 38 38 38 38 38 39 39 39 40 41 42 42 43 43 44 44 45 45 46 47 48 49 49 50 50 50 49 49 49 50 52 54 56 57 58 58 59 60 61 62 62 61 60 59 59 60 60 59 59 59 59 59 60 60 60 60 60 59 59 59 58 57 57 56 55 54 53 52 51 50 49 49 49 49 49 49 50 50 51 53 54 55
35 36 36 37 37 37 37 38 38 38 38 38 39 39 40 41 41 42 43 43 44 45 46 46 47 48 49 50 50 50 49 49 49 50 52 54 56 57 58 58 59 59 60 62 63 63 62 60 59 60 61 61 61 61 61 61 62 62 62 61 61 60 60 59 59 58 57 55 54 52 50 49 47 47 46 45 45 46 46 46 47 48 49 51 52 53
35 35 35 36 36 36 37 37 37 37 37 37 37 38 38 39 40 41 42 43 43 44 45 46 47 48 49 50 50 50 49 48 49 50 52 54 56 57 57 58 59 59 60 61 63 64 65 63 60 59 60 62 62 62 62 63 63 63 63 63 62 62 61 60 59 57 56 54 51 49 47 45 44 43 42 42 42 42 42 43 44 45 46 48 50 51
34 34 35 35 35 36 36 36 36 36 36 36 36 36 37 38 39 40 41 42 43 44 45 46 46 47 48 49 49 50 49 48 48 50 51 53 56 57 57 58 58 59 59 60 61 63 65 65 64 62 61 62 63 64 64 64 64 64 64 63 63 62 61 59 58 56 53 51 48 46 44 42 41 40 39 39 39 39 39 40 40 42 43 45 47 49
34 34 34 34 35 35 35 35 35 35 35 35 35 36 36 37 38 39 40 41 42 43 44 45 46 47 48 48 49 49 49 48 48 50 51 53 55 57 57 58 58 59 59 60 61 62 64 66 66 65 64 63 63 64 65 65 64 64 64 63 62 61 59 57 55 53 50 48 45 43 41 40 39 38 37 37 37 37 37 37 38 39 41 43 45 47
34 34 34 34 34 34 34 34 34 34 34 34 34 35 35 36 37 38 39 41 42 43 44 44 45 46 47 48 48 48 48 48 48 49 51 53 55 56 57 57 58 58 59 60 61 62 63 65 65 66 66 65 65 64 65 65 64 64 63 62 60 59 57 54 52 49 47 45 43 41 40 39 38 37 36 36 36 36 36 36 36 37 39 41 43 45
34 34 34 34 34 34 34 33 33 33 34 34 34 34 35 36 37 38 39 40 41 42 43 44 45 46 47 47 48 48 48 47 48 49 50 52 54 56 56 57 57 58 59 60 61 61 63 64 65 65 66 66 66 65 64 64 63 62 61 59 57 55 53 51 49 47 45 43 42 41 40 39 38 37 37 37 36 36 36 36 37 37 38 39 41 43
34 34 34 34 34 33 33 33 33 33 33 33 34 34 35 36 37 38 39 40 40 41 42 43 44 45 46 47 47 48 48 47 48 48 50 51 53 54 56 56 57 57 58 59 60 61 62 63 64 65 65 66 66 65 64 63 62 60 58 56 54 52 50 48 46 45 44 43 42 41 40 40 39 39 38 38 38 38 38 38 38 38 38 39 40 42
34 34 34 34 33 33 33 33 32 33 33 33 34 34 35 36 37 38 38 39 40 41 42 43 44 44 45 46 46 47 47 47 48 48 49 50 52 53 54 56 56 56 56 57 59 60 61 63 64 64 64 65 65 64 63 62 60 58 55 53 51 49 47 45 44 44 44 44 43 42 41 41 40 40 39 39 39 39 39 39 39 39 39 39 40 41
34 34 33 33 33 33 33 32 32 33 33 33 34 34 35 36 37 38 39 39 40 41 41 42 43 44 44 45 45 46 47 47 48 48 49 50 51 52 53 55 55 55 55 56 57 58 60 61 62 63 63 63 63 62 61 59 57 55 52 50 48 46 45 45 44 45 45 45 44 43 43 42 41 41 40 40 40 40 40 40 40 40 40 41 41 42
34 34 33 33 33 33 33 33 33 33 33 33 34 35 36 36 37 38 39 39 40 41 41 42 43 43 44 44 45 45 46 47 47 48 49 49 50 51 52 53 54 55 55 56 56 57 58 59 60 60 61 61 61 60 58 56 54 52 50 48 46 45 45 45 45 45 45 46 45 45 44 43 42 41 40 40 39 40 40 40 41 41 41 42 42 43
34 33 33 33 33 33 33 33 33 33 33 34 34 35 36 37 38 38 39 39 40 41 42 43 43 44 44 44 45 45 46 47 47 48 48 49 50 50 51 52 53 54 55 55 56 56 56 57 57 58 58 58 58 57 56 53 51 49 48 48 47 46 45 45 45 46 46 45 45 45 45 44 43 42 41 40 39 39 39 39 40 41 41 42 43 44
34 33 33 33 33 33 33 33 33 33 33 34 35 35 36 37 38 39 39 40 41 41 42 43 44 45 45 45 45 45 46 47 48 48 48 49 49 50 50 51 52 53 54 55 55 56 55 55 55 56 56 56 55 55 53 51 48 47 47 48 48 47 47 46 45 45 45 45 45 45 45 44 43 42 41 40 39 38 38 38 39 40 41 42 43 44
33 33 32 32 32 32 32 32 33 33 33 34 35 36 37 38 39 39 40 40 41 42 43 44 45 45 45 45 45 46 46 47 48 48 48 49 49 49 50 51 51 52 53 54 54 55 54 54 53 53 53 53 53 52 51 49 47 46 46 47 48 48 48 47 45 44 44 45 45 45 44 44 44 43 42 41 40 39 38 38 38 39 40 41 42 44
33 32 32 32 32 32 32 32 33 33 34 34 35 36 37 38 39 40 40 41 42 43 43 44 45 46 46 46 46 46 46 47 47 48 48 48 48 49 49 50 51 51 52 52 53 53 53 52 51 51 51 50 50 50 50 48 46 46 45 46 46 47 47 46 45 44 44 44 44 44 44 44 44 43 42 42 41 40 39 38 38 38 39 40 41 43
32 32 32 32 32 32 32 32 33 33 34 34 35 36 37 38 39 40 41 42 42 43 44 45 46 46 47 47 47 47 47 47 47 47 48 48 48 49 49 50 50 50 50 50 50 51 51 51 50 49 49 48 48 48 48 47 46 46 45 44 44 45 45 45 45 44 44 43 43 43 43 43 43 43 42 42 41 40 39 39 38 38 38 39 40 41
32 32 31 31 31 32 32 32 33 33 33 34 35 35 36 38 39 40 41 42 43 44 44 45 46 47 47 48 48 48 48 48 47 47 47 47 48 48 49 49 49 50 49 49 49 49 49 49 49 48 47 46 46 45 45 45 45 44 43 43 42 43 43 43 43 42 42 42 41 41 41 41 42 42 42 42 41 40 39 39 38 37 37 37 38 40
31 31 31 31 31 32 32 32 33 33 33 34 34 35 36 37 39 40 41 42 43 44 45 45 46 47 48 48 48 49 49 48 48 48 47 47 48 48 48 49 49 49 48 48 47 47 46 46 46 46 45 44 44 43 42 42 42 42 42 41 41 41 41 40 39 39 39 39 39 39 39 39 40 41 41 41 40 39 38 38 37 37 36 36 37 38
31 31 31 31 31 32 32 32 33 33 33 34 34 35 36 37 39 40 41 42 43 44 45 46 46 47 47 48 48 49 49 49 49 48 48 48 48 48 48 49 49 48 48 47 46 46 45 44 44 43 42 42 42 41 39 38 39 39 40 39 39 39 38 38 37 36 36 36 36 36 37 38 39 39 40 40 39 39 38 37 36 35 35 35 36 36
31 31 31 31 31 31 32 32 32 33 33 34 34 35 36 37 38 40 41 42 43 44 45 45 46 47 47 48 48 49 49 49 49 49 49 49 49 49 49 49 49 48 47 47 46 45 44 43 42 41 40 40 40 39 38 36 36 37 37 37 37 37 36 35 34 34 33 34 34 34 35 36 37 38 38 39 39 38 37 36 35 34 34 33 34 34
31 31 31 31 31 31 32 32 32 33 33 34 34 35 36 37 38 40 41 42 43 44 45 45 46 47 47 47 48 48 48 49 49 49 49 49 49 49 49 49 49 48 47 46 45 44 43 42 40 38 37 37 37 37 36 35 34 35 35 36 36 36 35 34 33 32 32 32 32 32 33 34 35 36 37 38 38 37 36 35 34 33 32 31 31 32
30 30 31 31 31 31 31 32 32 33 33 34 34 35 36 37 38 40 41 42 43 44 44 45 46 47 47 47 48 48 48 48 48 48 48 48 49 49 49 49 49 48 47 47 46 44 43 41 39 36 34 33 34 35 35 34 34 34 34 34 34 34 34 34 33 32 31 31 31 31 32 32 33 34 35 36 37 37 36 35 33 32 30 29 29 29
30 30 30 30 31 31 31 31 32 32 33 34 35 35 36 37 38 40 41 42 43 43 44 45 46 46 47 47 48 48 48 48 48 48 48 48 48 49 49 49 48 48 47 47 46 45 44 42 39 35 31 29 30 32 33 33 33 33 33 33 33 33 33 33 32 31 31 31 31 31 31 32 32 33 33 35 36 36 35 34 33 30 28 26 26 27
Wind_Direction
297 297 296 296 296 296 296 295 295 295 295 295 295 295 296 297 298 298 299 299 299 300 300 300 300 300 300 300 300 299 299 299 298 298 297 297 296 295 295 294 293 293 292 292 292 291 291 291 291 290 290 290 289 289 289 288 288 287 287 287 286 286 286 285 285 284 284 283 282 281 280 279 278 277 276 275 274 273 272 271 270 269 268 267 266 265
296 296 296 296 296 296 296 295 295 295 295 295 295 296 296 297 297 298 298 299 299 299 300 300 300 300 300 299 299 299 298 298 297 297 296 296 295 295 294 293 293 293 292 292 291 291 291 291 290 290 290 289 289 289 288 288 287 287 286 286 285 285 285 284 284 283 283 283 282 281 281 280 279 278 277 276 275 274 273 272 271 270 269 267 266 265
295 295 295 295 295 295 295 295 295 295 296 296 296 296 296 297 297 297 298 298 299 299 299 299 299 299 299 298 298 297 297 297 296 296 295 294 294 293 293 292 292 291 291 291 290 290 290 289 289 289 288 288 288 287 287 286 286 285 285 285 284 284 283 283 283 282 282 281 281 281 280 280 279 278 278 277 276 275 274 273 272 271 270 268 267 266
295 295 295 295 295 296 296 296 295 296 296 296 297 297 297 298 298 298 298 298 298 299 299 299 298 298 298 297 297 296 296 295 295 294 293 293 292 291 291 290 290 289 289 288 288 288 287 287 287 287 286 286 286 285 285 285 284 284 283 283 283 282 282 282 281 281 281 280 280 279 279 278 278 278 277 276 276 275 274 273 272 271 270 269 268 267
295 295 295 295 296 296 296 296 296 296 297 297 297 298 298 298 299 299 299 299 299 298 298 298 298 297 297 296 296 295 294 294 293 292 291 291 290 289 289 288 288 287 287 286 286 285 285 285 285 285 284 284 284 284 283 283 283 283 282 282 282 281 281 281 280 280 280 279 279 278 278 277 277 276 276 276 275 274 274 273 272 271 270 270 269 268
295 295 296 296 296 297 297 297 297 297 297 298 298 298 299 299 299 299 299 298 298 298 297 297 297 296 296 295 295 294 293 293 292 291 290 289 289 288 287 287 286 285 285 285 284 284 284 283 283 283 283 283 283 283 283 282 282 282 282 281 281 281 280 280 280 279 279 279 278 278 277 277 276 276 275 275 274 273 273 272 272 271 270 269 268 268
295 296 296 297 297 297 298 298 298 298 298 298 298 298 299 299 299 299 299 298 298 297 297 296 296 296 295 295 294 294 293 292 291 290 289 288 288 287 286 285 285 284 284 283 283 283 283 282 282 282 282 282 282 282 282 282 282 282 281 281 281 281 280 280 280 279 279 278 278 277 277 276 276 275 274 274 273 273 272 271 271 270 269 269 268 267
295 295 296 297 297 298 298 298 298 298 298 298 298 299 298 298 298 298 298 298 298 297 297 296 296 296 295 295 294 293 293 292 291 290 289 288 287 286 285 285 284 284 283 283 282 282 282 282 282 282 282 282 282 282 282 282 282 282 281 281 281 281 280 280 280 279 279 278 277 277 276 276 275 275 274 273 273 272 271 271 270 269 269 268 267 267
295 295 296 296 297 297 298 298 298 298 299 299 299 299 299 299 298 298 298 298 298 298 297 297 296 296 295 295 294 294 293 292 291 290 289 288 287 286 286 285 284 283 283 283 283 283 283 283 283 283 283 283 283 283 283 283 282 282 282 282 281 281 281 280 280 279 278 278 277 277 276 275 275 274 273 273 272 272 271 270 270 269 268 268 267 266
295 295 296 296 297 297 298 298 298 298 299 299 300 300 300 300 299 299 299 299 298 298 298 297 297 296 296 295 295 294 294 293 292 291 290 290 289 288 287 287 286 285 285 284 284 284 285 285 285 285 285 284 284 284 284 284 284 283 283 282 282 281 281 280 280 279 278 278 277 276 275 275 274 273 273 272 271 271 270 270 269 269 268 267 267 266
294 295 295 296 296 297 298 298 298 298 299 300 300 301 301 301 300 300 300 299 299 298 298 298 298 297 297 297 296 295 295 294 293 292 292 291 291 291 290 289 289 288 288 287 287 287 287 287 287 287 286 286 286 286 286 285 285 284 284 283 283 282 281 280 280 279 278 277 276 275 275 274 273 272 272 271 270 270 269 269 268 268 267 267 266 266
294 294 295 296 296 297 297 298 298 299 299 300 300 300 301 301 301 301 301 301 300 299 299 299 299 299 299 299 298 297 296 296 295 294 294 293 293 293 292 291 291 290 290 290 289 289 289 289 288 288 288 288 287 287 286 286 285 285 284 284 283 282 281 280 279 278 277 277 276 275 274 273 272 271 271 270 269 269 268 268 268 267 267 267 266 266
293 294 295 296 296 297 298 298 299 299 300 300 301 301 301 301 301 302 302 302 301 301 300 300 300 300 301 301 300 300 299 298 297 296 296 296 295 295 294 294 293 293 292 292 291 291 291 290 290 289 289 289 288 287 287 286 286 285 284 283 282 282 281 280 279 278 277 275 274 273 273 272 271 270 269 269 268 268 267 267 266 266 266 266 266 265
293 294 295 296 297 297 298 299 300 300 301 301 302 302 302 302 302 302 302 302 302 302 302 302 302 302 302 302 302 301 301 300 299 298 298 298 298 298 297 296 295 295 295 294 294 293 293 292 292 291 290 290 289 288 287 287 286 285 284 283 282 281 280 278 277 276 275 274 273 272 271 270 270 269 268 267 267 266 266 266 266 265 265 265 265 265
293 294 295 296 297 298 299 300 300 301 302 302 302 302 302 302 303 303 303 303 303 302 302 303 303 303 303 304 303 303 302 302 301 300 300 299 300 300 300 299 298 297 297 297 297 296 295 295 294 293 292 291 290 289 288 288 286 285 284 282 281 280 278 277 276 275 273 273 271 271 270 269 268 268 267 266 266 266 265 265 265 265 265 265 264 264
294 295 296 297 297 298 299 300 301 302 302 302 302 303 303 303 303 303 303 303 303 303 303 303 303 303 303 304 304 304 304 303 302 302 301 301 302 302 302 301 301 300 299 299 299 298 298 297 296 295 294 293 292 291 290 289 288 287 285 283 281 280 278 276 275 273 272 271 270 269 268 268 267 267 266 266 265 265 264 264 264 264 264 264 264 264
294 295 296 297 298 299 300 301 302 303 303 303 303 303 303 304 304 304 304 304 304 304 304 305 305 305 304 305 305 306 306 305 304 304 303 303 304 304 304 304 303 302 301 301 301 300 300 299 298 297 296 296 295 294 293 292 291 289 287 285 283 281 279 277 275 274 272 271 270 269 268 267 267 266 266 265 265 264 264 264 263 263 263 263 263 263
295 296 297 298 299 300 301 302 303 303 303 303 303 303 304 304 304 305 305 305 305 305 305 305 306 306 306 306 307 307 307 307 306 305 305 305 305 306 306 306 305 304 303 302 302 302 301 300 300 299 299 298 298 297 296 295 294 292 290 288 286 284 282 279 277 276 274 273 271 270 269 268 268 267 266 266 265 264 264 264 263 263 263 263 263 263
296 297 298 299 300 301 302 303 303 303 303 303 304 304 304 304 305 305 305 306 306 306 306 306 306 307 307 308 308 309 308 308 308 307 307 307 307 307 307 307 305 304 304 303 303 303 302 302 301 301 301 300 300 299 298 297 296 294 292 290 288 286 284 282 280 278 277 275 274 273 272 271 270 269 268 267 267 266 265 264 264 263 263 262 262 262
297 298 299 300 301 302 303 304 304 304 304 304 304 304 305 305 305 305 306 306 306 306 306 307 307 307 308 308 309 309 309 309 309 308 308 307 308 308 308 307 306 305 304 304 304 304 304 303 303 303 302 302 301 301 299 298 297 295 293 291 289 288 286 284 282 281 280 278 277 276 275 274 273 272 271 270 269 268 267 266 265 264 263 263 262 261
298 299 300 301 302 303 304 304 304 304 304 304 305 305 305 305 305 305 306 306 306 306 306 307 307 307 308 309 310 310 310 310 309 309 308 308 308 308 308 307 307 306 305 305 305 305 305 304 304 304 304 303 302 301 300 299 297 295 294 292 290 289 287 286 284 283 282 281 279 278 277 276 275 274 273 272 271 270 269 268 267 265 264 263 262 262
299 300 301 302 303 304 304 304 304 304 305 305 305 305 305 305 305 305 306 306 306 306 306 307 307 308 308 309 310 310 310 310 310 310 309 309 308 308 308 308 307 307 306 306 306 306 306 305 305 305 304 303 302 301 300 299 297 296 295 293 292 290 289 288 287 285 284 283 282 281 279 278 277 276 274 273 272 271 270 268 267 266 265 264 263 262
300 301 301 302 303 304 304 304 304 304 304 304 304 304 305 305 305 306 306 307 307 307 306 306 307 308 309 309 310 310 310 311 311 311 310 310 309 309 309 309 308 308 307 307 307 306 306 305 305 305 304 303 303 302 301 300 298 297 296 294 293 292 291 290 289 288 287 286 284 283 282 280 279 277 275 274 272 271 270 268 267 266 265 264 263 261
299 300 301 302 303 303 304 304 304 304 304 304 304 305 305 306 306 307 307 308 307 307 307 307 307 308 309 309 309 310 311 312 312 312 312 311 310 309 309 309 309 308 307 307 307 307 306 306 305 305 305 304 303 302 302 301 300 298 297 296 295 294 293 292 291 290 289 288 287 285 284 282 280 278 277 275 273 271 270 268 267 266 264 263 262 261
299 300 301 302 302 303 303 304 304 304 305 305 305 305 305 306 307 307 308 308 308 307 307 307 308 308 309 309 310 311 312 313 313 313 313 311 310 309 309 309 309 308 307 307 307 307 307 306 306 305 305 305 304 304 303 302 301 300 299 298 297 296 295 294 294 293 292 290 289 288 286 284 282 280 278 276 274 272 270 269 267 265 264 263 261 260
299 300 301 302 303 303 303 304 304 305 305 305 305 305 306 306 306 307 307 307 307 306 307 307 308 308 309 310 311 312 313 314 314 314 313 311 310 309 309 309 309 308 308 308 308 308 307 307 307 306 306 305 305 304 304 303 302 301 300 300 299 298 298 297 296 295 294 293 292 290 289 287 285 283 281 279 276 274 272 270 268 266 264 263 261 260
299 300 301 302 303 303 303 304 304 305 305 305 305 305 305 305 306 306 306 306 306 306 307 308 308 309 310 310 311 312 313 314 315 314 313 311 310 309 309 309 309 309 309 308 308 308 308 308 307 307 307 306 306 305 305 304 304 303 302 302 301 301 300 299 299 298 297 296 294 293 291 290 288 286 283 281 278 276 274 271 269 267 265 263 261 259
299 300 301 302 302 302 303 303 303 304 304 304 304 304 304 305 305 306 306 306 306 307 308 308 309 310 310 311 311 312 314 315 315 314 312 311 310 309 310 310 310 310 310 309 309 308 308 308 308 308 307 307 307 306 306 306 305 304 304 303 303 302 302 301 300 299 298 297 296 294 293 291 289 287 285 282 280 277 275 272 270 268 266 264 262 260
298 299 300 301 301 302 302 302 302 303 303 303 303 303 304 304 305 305 306 306 306 307 308 309 310 310 311 311 311 312 314 315 315 314 313 311 310 310 310 311 311 311 311 310 309 308 308 308 308 309 308 308 308 308 307 307 306 305 305 304 304 303 302 302 301 300 299 298 296 295 293 291 289 287 285 282 280 277 275 273 271 269 267 265 262 260
297 298 299 300 300 300 300 301 301 301 302 302 302 303 303 304 305 305 306 306 307 308 308 309 310 310 311 311 312 312 314 315 315 314 313 312 310 310 311 311 311 311 311 311 310 309 308 308 309 309 309 309 309 308 308 307 306 306 305 305 304 303 303 302 301 300 299 298 297 295 294 291 289 286 284 281 279 277 274 272 271 269 267 265 263 261
295 296 297 298 298 299 299 300 300 301 301 302 302 302 303 304 305 305 306 307 307 308 309 309 310 310 310 311 312 313 314 315 316 314 313 312 311 310 311 311 311 311 312 311 311 310 309 309 309 309 309 309 309 308 308 307 307 306 306 305 304 304 303 303 302 301 300 299 297 296 294 291 289 286 283 281 278 276 274 272 270 268 267 265 264 262
294 295 296 296 297 298 298 299 300 300 301 301 302 302 303 304 305 305 306 307 308 308 309 309 310 310 310 311 311 313 315 316 316 314 313 312 311 311 312 312 312 312 312 311 311 310 310 310 310 310 310 309 309 308 308 307 307 306 306 305 304 304 303 303 302 301 300 299 298 296 294 291 289 286 283 280 278 275 273 271 269 267 266 265 264 262
294 295 296 296 297 298 298 299 300 301 301 302 302 303 304 304 305 306 306 307 307 308 309 309 310 310 310 311 312 313 315 316 316 315 313 312 312 312 312 312 312 312 312 311 310 309 309 309 310 310 310 310 309 308 308 307 306 306 305 304 304 304 303 303 302 301 301 299 298 296 294 292 289 286 283 280 277 274 272 270 268 266 265 264 263 262
295 296 297 297 298 298 299 300 301 302 302 303 303 304 304 305 305 306 306 307 307 308 309 309 310 310 311 311 312 313 315 316 316 315 314 313 312 312 312 312 312 312 311 310 310 309 309 309 309 309 310 309 309 308 307 306 306 305 304 304 304 304 304 303 303 302 301 300 298 296 294 292 290 287 283 280 277 274 271 269 266 265 264 263 262 262
296 297 298 298 299 300 300 301 302 303 303 304 304 305 305 305 305 306 306 307 308 309 309 310 310 311 311 312 313 314 315 316 316 315 314 313 312 312 312 312 312 311 311 310 309 309 308 308 308 308 308 308 308 308 307 306 305 305 304 304 304 304 304 304 304 303 302 300 299 297 296 293 291 288 285 281 278 275 272 269 266 264 262 261 261 261
298 299 299 300 300 301 301 302 303 303 304 304 305 305 305 305 306 306 307 308 309 309 310 310 311 311 312 313 314 315 316 316 316 315 314 313 312 312 312 312 311 311 310 310 309 308 308 307 308 307 307 307 307 307 307 306 305 305 305 305 305 305 305 305 305 304 303 301 300 298 297 295 292 290 287 283 280 277 273 270 267 264 262 260 259 259
299 300 300 301 301 302 303 303 304 304 304 305 305 305 305 306 306 307 308 309 309 310 310 311 311 311 312 313 314 315 316 316 315 315 314 313 313 312 312 311 311 311 310 309 309 308 307 307 307 307 306 306 306 306 306 306 305 305 305 306 306 306 306 306 306 305 304 302 301 300 298 296 294 292 289 286 283 279 276 272 269 266 264 261 259 258
300 301 301 302 302 303 304 304 304 305 305 305 306 306 306 307 307 308 309 310 310 310 311 311 311 311 312 313 314 315 315 315 315 315 314 314 313 312 312 311 311 311 310 309 308 308 307 306 306 306 306 306 306 305 306 306 306 306 307 307 307 307 308 308 307 306 305 304 303 301 300 298 296 294 291 289 286 282 279 275 272 269 266 263 260 258
301 302 302 303 303 304 304 305 305 305 306 306 307 307 308 308 308 309 310 310 311 311 311 311 311 312 313 313 314 315 315 315 315 315 315 314 314 313 312 312 311 310 310 309 308 307 307 306 306 306 306 306 306 306 306 306 307 308 309 309 309 309 310 310 309 308 307 306 305 304 302 301 299 297 294 292 289 285 282 278 275 271 268 265 262 259
301 302 303 303 304 304 305 305 305 306 306 307 308 308 308 309 309 310 311 311 312 312 312 312 312 313 314 315 315 316 316 316 316 316 316 315 315 314 313 312 311 311 310 309 308 308 308 307 307 307 307 307 307 307 307 308 309 311 311 311 311 311 311 311 310 309 308 307 306 305 304 302 301 299 296 294 291 287 284 281 277 274 271 268 265 261
301 302 302 303 304 304 305 305 306 306 307 308 308 309 309 310 310 311 312 312 313 313 313 313 314 314 315 316 317 317 317 317 317 317 317 317 316 315 314 313 312 311 311 310 309 309 309 309 309 308 308 308 308 308 309 310 312 313 313 313 313 312 311 310 310 309 308 307 306 305 304 303 302 300 298 295 292 288 285 282 279 276 273 270 267 264
301 302 302 303 303 304 305 305 306 306 307 308 309 309 310 310 311 312 313 313 314 314 315 315 315 316 316 317 317 318 318 318 318 318 318 318 317 316 315 314 313 313 312 312 311 310 310 310 309 309 309 309 309 309 310 312 313 314 314 313 313 311 310 309 309 309 308 307 306 306 305 304 302 300 298 296 293 290 287 283 280 277 274 271 269 266
301 301 302 303 303 304 304 305 306 306 307 308 309 310 311 312 312 313 314 315 315 316 316 316 316 317 317 318 318 319 319 319 320 320 319 319 318 317 316 315 315 314 314 313 312 312 311 310 310 310 310 310 310 310 311 313 314 315 314 313 312 311 309 309 309 309 308 308 307 306 305 304 302 301 299 296 294 292 289 285 282 279 276 273 270 267
300 301 302 302 303 304 304 305 306 306 307 309 310 311 312 313 314 315 315 316 317 317 317 317 317 317 318 318 319 320 320 320 321 321 320 320 319 318 317 317 316 315 315 314 313 313 312 311 311 311 311 311 311 311 312 313 314 313 313 312 310 309 309 309 309 309 308 308 307 306 305 304 302 300 299 297 295 293 291 288 284 281 277 274 271 268
300 301 301 302 303 304 304 305 305 306 308 309 310 311 313 314 315 316 317 317 318 318 318 318 318 319 319 320 320 320 321 321 322 322 321 321 320 319 318 317 317 316 316 315 314 313 313 312 312 311 311 311 310 310 311 312 312 312 311 310 309 308 308 308 309 310 309 309 308 307 306 304 302 300 299 297 296 294 292 289 286 283 279 275 272 268
300 301 301 302 303 303 304 304 305 306 308 309 311 312 314 315 316 317 318 318 319 319 319 319 319 320 320 321 321 321 322 322 323 323 322 321 320 319 319 318 318 318 317 316 315 314 313 312 311 311 311 311 310 310 311 312 311 310 310 309 308 308 308 309 310 310 310 310 309 308 307 304 302 300 299 298 297 296 293 291 288 284 281 277 273 269
299 300 301 301 302 303 303 304 305 307 308 310 312 313 315 316 317 318 319 319 319 319 319 319 320 320 321 321 322 322 323 323 324 324 323 322 321 320 319 319 319 319 318 317 316 315 313 312 311 311 311 311 311 311 312 312 311 310 310 309 309 309 310 311 313 313 313 312 311 310 308 306 303 301 301 300 299 298 296 293 290 286 282 278 273 270
298 299 300 301 301 302 303 304 306 307 309 311 312 314 316 317 318 319 319 319 320 320 320 320 320 320 321 322 323 324 324 325 325 325 324 323 322 321 321 321 321 320 319 318 316 315 313 312 311 311 311 311 312 312 313 313 312 312 311 311 311 312 313 316 318 319 317 316 314 312 310 307 305 303 302 301 300 300 299 296 293 288 284 279 274 270
298 298 299 300 301 302 303 305 306 308 309 311 313 315 317 318 319 320 320 320 320 320 320 320 321 321 322 323 324 325 325 326 326 325 325 324 323 323 323 323 322 321 320 318 317 315 313 312 311 311 312 313 314 315 316 315 314 313 313 313 314 316 319 322 324 324 323 320 318 315 312 309 307 305 303 302 301 302 301 299 296 291 285 280 274 270
297 298 299 300 301 302 304 305 307 309 310 312 314 316 318 319 320 320 320 320 320 320 320 321 321 322 323 324 325 326 326 327 326 326 326 325 325 325 325 325 324 323 321 319 317 315 313 312 312 313 315 317 318 319 319 318 317 315 315 317 319 321 324 326 328 328 327 325 323 321 318 314 311 308 305 303 303 303 304 302 299 295 288 281 274 269
297 298 299 300 302 303 304 306 308 309 311 313 315 317 319 320 320 320 320 320 320 321 321 321 322 323 324 325 326 327 327 327 327 327 327 327 327 328 328 327 326 325 322 319 317 316 314 313 313 314 318 322 323 323 322 321 319 318 318 320 323 326 328 330 331 331 330 330 329 328 326 323 318 314 309 306 305 305 306 306 304 299 292 282 274 268
Height
3042 3042 3041 3041 3040 3040 3039 3038 3037 3036 3035 3034 3033 3031 3030 3029 3027 3026 3025 3023 3022 3021 3020 3019 3018 3017 3016 3015 3014 3013 3012 3011 3010 3009 3008 3007 3006 3005 3004 3003 3002 3001 3000 2999 2998 2998 2997 2996 2995 2995 2994 2993 2992 2991 2990 2990 2989 2988 2987 2987 2986 2985 2985 2984 2983 2983 2982 2982 2981 2981 2981 2980 2980 2980 2980 2980 2980 2980 2980 2980 2980 2980 2981 2981 2981 2982
3039 3039 3039 3038 3038 3037 3036 3035 3034 3033 3032 3031 3030 3029 3028 3026 3025 3024 3022 3021 3020 3018 3017 3016 3015 3015 3014 3012 3011 3010 3009 3008 3007 3006 3005 3005 3003 3002 3001 3000 2999 2998 2997 2996 2995 2994 2994 2993 2992 2991 2990 2990 2989 2988 2987 2986 2985 2985 2984 2983 2982 2981 2981 2980 2980 2979 2978 2978 2977 2977 2976 2976 2975 2975 2975 2975 2975 2975 2975 2975 2975 2976 2976 2976 2977 2977
3036 3036 3036 3035 3035 3034 3033 3032 3031 3030 3029 3028 3027 3026 3025 3024 3023 3021 3020 3019 3017 3016 3015 3014 3013 3012 3011 3010 3009 3008 3007 3006 3005 3004 3003 3002 3000 3000 2998 2997 2996 2995 2994 2993 2992 2991 2990 2990 2989 2988 2987 2986 2985 2984 2984 2983 2982 2981 2980 2979 2979 2978 2977 2976 2976 2975 2975 2974 2973 2973 2972 2972 2971 2971 2971 2970 2970 2970 2970 2971 2971 2971 2971 2971 2972 2973
3033 3033 3033 3032 3032 3031 3030 3029 3028 3026 3025 3024 3023 3022 3021 3020 3019 3018 3017 3016 3015 3013 3012 3011 3010 3009 3008 3007 3006 3005 3004 3003 3002 3001 3000 2999 2998 2997 2996 2995 2994 2993 2992 2990 2990 2989 2988 2987 2986 2985 2984 2983 2982 2981 2980 2979 2978 2977 2976 2975 2975 2974 2973 2972 2972 2971 2970 2970 2969 2969 2968 2968 2967 2967 2966 2966 2966 2966 2966 2966 2966 2966 2966 2966 2967 2967
3030 3029 3029 3029 3028 3028 3027 3026 3024 3023 3022 3021 3020 3019 3018 3017 3016 3015 3014 3013 3012 3010 3010 3008 3007 3006 3005 3004 3003 3003 3002 3000 3000 2999 2997 2996 2995 2994 2993 2992 2991 2990 2989 2988 2987 2986 2985 2984 2983 2982 2981 2980 2979 2978 2976 2975 2975 2974 2973 2972 2971 2970 2969 2968 2968 2967 2966 2966 2965 2965 2964 2964 2963 2962 2962 2962 2961 2961 2961 2961 2961 2961 2961 2961 2962 2962
3026 3026 3025 3025 3025 3024 3024 3022 3021 3020 3019 3018 3017 3015 3014 3013 3012 3011 3010 3010 3009 3008 3006 3005 3004 3003 3002 3001 3000 3000 2999 2998 2997 2995 2995 2993 2992 2991 2990 2989 2988 2987 2986 2985 2984 2983 2982 2981 2980 2979 2978 2976 2975 2974 2973 2972 2970 2970 2969 2968 2967 2966 2965 2964 2963 2963 2962 2961 2961 2960 2960 2959 2959 2958 2958 2957 2957 2957 2956 2956 2956 2956 2956 2956 2957 2957
3023 3023 3022 3021 3021 3020 3020 3019 3017 3016 3015 3014 3013 3012 3011 3010 3009 3008 3007 3006 3005 3004 3003 3002 3001 3000 2999 2998 2997 2996 2995 2995 2993 2992 2991 2990 2989 2988 2987 2986 2985 2984 2983 2982 2981 2980 2979 2978 2977 2975 2974 2973 2972 2970 2969 2968 2967 2965 2964 2963 2962 2961 2960 2960 2959 2958 2957 2957 2956 2955 2955 2955 2954 2954 2953 2953 2952 2952 2952 2952 2951 2951 2951 2951 2952 2952
3020 3020 3019 3018 3018 3017 3016 3015 3014 3012 3011 3010 3009 3009 3008 3007 3006 3005 3004 3003 3002 3001 3000 2999 2998 2997 2996 2995 2994 2993 2992 2991 2990 2989 2988 2987 2986 2985 2984 2983 2982 2981 2980 2979 2978 2977 2976 2975 2973 2972 2971 2970 2968 2967 2965 2964 2963 2961 2960 2959 2958 2957 2956 2955 2954 2953 2953 2952 2951 2951 2950 2950 2949 2949 2948 2948 2948 2947 2947 2947 2947 2946 2946 2946 2946 2947
3017 3017 3016 3015 3014 3013 3013 3012 3010 3009 3007 3006 3005 3004 3004 3003 3002 3001 3000 2999 2998 2997 2996 2995 2995 2994 2993 2992 2990 2989 2988 2987 2986 2985 2984 2983 2982 2981 2980 2979 2978 2977 2976 2975 2974 2973 2972 2971 2970 2969 2967 2966 2964 2963 2961 2960 2959 2957 2956 2955 2954 2952 2951 2950 2950 2949 2948 2947 2946 2946 2945 2945 2944 2944 2943 2943 2943 2942 2942 2942 2942 2941 2941 2941 2941 2942
3014 3014 3013 3012 3011 3010 3009 3008 3007 3005 3004 3002 3001 3000 2999 2998 2998 2997 2997 2996 2995 2994 2992 2991 2990 2990 2990 2989 2987 2985 2984 2983 2982 2981 2980 2979 2978 2977 2976 2975 2974 2973 2972 2971 2970 2970 2968 2967 2966 2965 2963 2962 2960 2959 2957 2956 2954 2953 2952 2950 2949 2948 2947 2946 2945 2944 2943 2942 2942 2941 2940 2940 2939 2939 2938 2938 2937 2937 2937 2937 2936 2936 2936 2936 2936 2936
3011 3010 3010 3009 3008 3007 3005 3004 3003 3002 3001 2999 2998 2996 2995 2994 2993 2992 2992 2992 2991 2990 2989 2987 2986 2985 2985 2984 2984 2982 2980 2979 2978 2977 2976 2975 2974 2973 2972 2971 2970 2969 2968 2967 2966 2965 2964 2963 2962 2960 2959 2957 2956 2955 2953 2951 2950 2949 2947 2946 2945 2943 2942 2941 2940 2939 2938 2938 2937 2936 2935 2935 2934 2934 2933 2933 2932 2932 2932 2931 2931 2931 2931 2931 2931 2931
3008 3007 3007 3006 3005 3004 3002 3001 3000 2999 2997 2996 2995 2994 2992 2990 2989 2987 2987 2987 2986 2985 2985 2984 2983 2981 2980 2980 2979 2978 2976 2975 2974 2973 2972 2971 2970 2969 2967 2966 2965 2965 2964 2963 2962 2961 2960 2958 2957 2956 2954 2953 2951 2950 2949 2947 2945 2944 2943 2941 2940 2939 2938 2936 2935 2935 2934 2933 2932 2931 2930 2930 2929 2929 2928 2928 2927 2927 2926 2926 2926 2925 2925 2925 2925 2925
3005 3004 3004 3003 3002 3000 2999 2998 2996 2995 2994 2992 2991 2990 2989 2987 2985 2984 2983 2982 2981 2980 2979 2979 2978 2978 2976 2975 2974 2972 2971 2970 2969 2968 2967 2966 2965 2964 2963 2962 2961 2960 2959 2958 2957 2956 2955 2954 2952 2951 2950 2948 2947 2945 2944 2943 2941 2940 2938 2937 2935 2934 2933 2932 2931 2930 2929 2928 2927 2926 2925 2925 2924 2924 2923 2923 2922 2922 2921 2921 2920 2920 2920 2920 2920 2920
3002 3001 3000 3000 2999 2997 2996 2994 2993 2992 2990 2989 2987 2986 2985 2983 2982 2980 2979 2978 2977 2976 2975 2973 2973 2973 2972 2971 2969 2968 2966 2965 2964 2964 2963 2962 2961 2960 2958 2957 2956 2955 2954 2953 2952 2951 2950 2948 2947 2946 2945 2943 2942 2941 2940 2938 2937 2935 2934 2932 2931 2930 2928 2927 2926 2925 2924 2923 2922 2921 2921 2920 2920 2919 2918 2918 2917 2917 2916 2916 2915 2915 2915 2915 2915 2915
3000 2999 2998 2997 2995 2994 2992 2991 2990 2988 2987 2985 2984 2982 2981 2980 2978 2977 2975 2974 2973 2972 2970 2969 2969 2968 2968 2966 2965 2963 2961 2960 2959 2958 2958 2957 2957 2955 2953 2952 2951 2950 2949 2947 2946 2945 2945 2943 2941 2940 2939 2938 2937 2935 2934 2933 2932 2930 2929 2928 2926 2925 2924 2923 2921 2920 2920 2919 2918 2917 2916 2915 2915 2914 2914 2913 2912 2912 2911 2911 2910 2910 2910 2910 2909 2909
2997 2995 2995 2994 2992 2991 2990 2988 2986 2985 2984 2982 2980 2979 2977 2976 2975 2973 2971 2970 2969 2967 2966 2965 2964 2964 2964 2963 2961 2959 2957 2955 2954 2953 2952 2952 2952 2951 2949 2946 2945 2945 2944 2942 2941 2940 2939 2937 2936 2934 2933 2932 2931 2930 2929 2928 2926 2925 2924 2923 2922 2920 2919 2918 2917 2916 2915 2914 2913 2912 2911 2911 2910 2909 2909 2908 2907 2907 2906 2906 2905 2905 2905 2904 2904 2904
2994 2993 2991 2990 2989 2988 2986 2985 2983 2981 2980 2978 2977 2975 2974 2972 2971 2970 2968 2966 2965 2963 2962 2960 2959 2958 2958 2958 2957 2955 2952 2950 2948 2948 2947 2947 2947 2946 2944 2941 2940 2939 2938 2937 2936 2934 2933 2931 2930 2928 2927 2926 2925 2924 2923 2922 2920 2920 2918 2917 2916 2915 2914 2913 2912 2911 2910 2910 2909 2908 2907 2906 2905 2905 2904 2903 2903 2902 2901 2901 2900 2900 2899 2899 2899 2899
2991 2990 2988 2987 2986 2985 2984 2982 2980 2978 2977 2975 2974 2972 2971 2969 2968 2966 2964 2963 2961 2960 2958 2956 2955 2953 2952 2952 2952 2951 2948 2945 2943 2942 2942 2941 2941 2941 2939 2937 2935 2933 2932 2931 2930 2929 2927 2925 2924 2922 2921 2920 2919 2918 2916 2915 2914 2913 2912 2912 2911 2910 2909 2908 2907 2906 2905 2905 2904 2903 2902 2901 2900 2900 2899 2898 2897 2897 2896 2895 2895 2894 2894 2894 2893 2893
2988 2987 2985 2984 2983 2981 2980 2979 2977 2975 2973 2972 2970 2969 2967 2966 2964 2963 2961 2959 2958 2956 2954 2953 2951 2950 2949 2947 2947 2946 2944 2941 2939 2937 2936 2936 2936 2936 2935 2932 2930 2928 2927 2926 2925 2923 2921 2920 2918 2917 2915 2914 2913 2912 2911 2910 2909 2908 2907 2906 2905 2904 2904 2903 2902 2901 2900 2900 2899 2898 2897 2896 2895 2895 2894 2893 2892 2891 2890 2890 2889 2889 2888 2888 2888 2887
2985 2984 2982 2980 2979 2978 2977 2976 2974 2972 2970 2968 2967 2965 2964 2962 2961 2960 2958 2956 2955 2953 2951 2949 2947 2946 2945 2944 2943 2942 2940 2938 2935 2933 2932 2931 2931 2931 2930 2927 2925 2923 2922 2921 2920 2918 2915 2914 2912 2911 2910 2909 2907 2906 2905 2904 2903 2902 2901 2900 2900 2899 2898 2897 2897 2896 2895 2895 2894 2893 2892 2891 2890 2889 2888 2887 2886 2885 2884 2884 2883 2882 2882 2882 2881 2881
2982 2981 2979 2977 2976 2975 2974 2973 2971 2969 2967 2965 2963 2962 2960 2959 2958 2956 2955 2953 2951 2950 2948 2946 2944 2943 2942 2940 2939 2938 2937 2935 2932 2930 2928 2927 2927 2926 2925 2922 2919 2917 2916 2915 2914 2912 2910 2908 2906 2905 2905 2903 2902 2901 2900 2899 2898 2897 2896 2895 2894 2893 2893 2892 2891 2890 2890 2889 2888 2887 2886 2885 2884 2883 2882 2881 2880 2879 2878 2877 2876 2876 2876 2875 2875 2875
2979 2978 2976 2975 2973 2971 2970 2969 2968 2966 2964 2962 2960 2959 2957 2955 2954 2953 2952 2950 2948 2946 2945 2943 2941 2940 2939 2937 2936 2935 2934 2932 2929 2926 2924 2922 2922 2922 2921 2917 2914 2912 2911 2910 2909 2907 2905 2903 2901 2900 2899 2898 2897 2896 2895 2893 2892 2891 2890 2890 2889 2888 2887 2886 2885 2885 2884 2883 2882 2881 2880 2879 2878 2877 2876 2875 2874 2872 2871 2870 2870 2869 2869 2868 2868 2868
2975 2974 2973 2972 2970 2969 2967 2966 2965 2963 2961 2959 2957 2955 2954 2952 2951 2949 2948 2947 2945 2943 2941 2940 2938 2937 2936 2935 2933 2932 2931 2929 2926 2923 2921 2918 2917 2916 2916 2913 2910 2907 2906 2905 2903 2901 2900 2898 2897 2895 2894 2893 2892 2890 2889 2888 2887 2886 2885 2884 2883 2882 2881 2880 2880 2879 2878 2877 2876 2875 2873 2872 2871 2870 2869 2868 2867 2866 2865 2864 2863 2862 2862 2861 2861 2861
2972 2971 2970 2969 2967 2966 2964 2963 2961 2960 2958 2956 2954 2952 2951 2949 2948 2946 2945 2943 2941 2939 2937 2936 2935 2934 2933 2931 2930 2929 2928 2926 2923 2920 2917 2915 2913 2911 2910 2908 2905 2903 2901 2900 2899 2896 2894 2893 2892 2890 2889 2888 2886 2885 2884 2883 2881 2880 2879 2878 2877 2876 2875 2874 2873 2872 2871 2870 2869 2868 2866 2865 2864 2863 2862 2861 2860 2859 2858 2857 2856 2855 2855 2855 2854 2854
2969 2968 2967 2966 2965 2963 2961 2960 2958 2957 2955 2953 2951 2950 2948 2946 2945 2943 2941 2940 2937 2935 2933 2932 2931 2930 2929 2928 2926 2925 2924 2923 2920 2917 2914 2911 2908 2907 2906 2904 2901 2898 2896 2895 2894 2892 2889 2887 2886 2885 2884 2882 2881 2880 2878 2877 2875 2875 2873 2872 2871 2870 2869 2868 2867 2866 2865 2863 2862 2861 2860 2858 2857 2856 2855 2854 2853 2852 2850 2850 2849 2848 2848 2847 2847 2846
2966 2965 2964 2963 2962 2960 2959 2957 2955 2954 2952 2950 2948 2946 2944 2943 2941 2940 2939 2937 2935 2932 2930 2929 2928 2926 2925 2924 2923 2922 2921 2919 2917 2915 2911 2907 2904 2902 2902 2900 2897 2894 2891 2890 2889 2887 2884 2882 2881 2880 2879 2877 2875 2874 2873 2871 2870 2869 2867 2866 2865 2864 2862 2861 2860 2859 2857 2856 2855 2854 2852 2851 2850 2848 2847 2846 2845 2844 2843 2843 2842 2841 2841 2840 2840 2839
2964 2963 2961 2960 2959 2957 2956 2955 2953 2951 2950 2948 2945 2944 2942 2940 2939 2938 2936 2934 2932 2930 2928 2926 2925 2923 2922 2920 2919 2918 2917 2916 2914 2912 2908 2904 2900 2898 2897 2896 2893 2890 2886 2884 2884 2882 2880 2877 2875 2874 2873 2871 2870 2869 2867 2865 2864 2862 2861 2860 2858 2857 2855 2854 2853 2852 2850 2849 2848 2846 2845 2843 2842 2841 2840 2839 2838 2837 2836 2835 2835 2834 2833 2833 2832 2832
2961 2960 2959 2958 2956 2955 2953 2952 2950 2949 2947 2945 2944 2941 2940 2938 2936 2935 2933 2931 2929 2927 2925 2924 2921 2920 2918 2917 2916 2915 2914 2913 2911 2908 2905 2901 2897 2895 2893 2891 2889 2885 2882 2879 2878 2877 2876 2873 2870 2868 2867 2866 2865 2863 2861 2860 2858 2856 2854 2853 2851 2850 2849 2847 2846 2845 2844 2842 2841 2839 2838 2836 2835 2834 2833 2831 2830 2830 2829 2828 2827 2826 2825 2825 2824 2824
2959 2958 2956 2955 2954 2952 2951 2950 2948 2947 2945 2944 2942 2940 2937 2936 2934 2932 2930 2929 2927 2925 2923 2921 2919 2917 2915 2913 2912 2912 2911 2910 2908 2905 2901 2898 2894 2891 2890 2888 2885 2882 2878 2874 2871 2870 2871 2870 2867 2864 2861 2860 2859 2857 2855 2853 2851 2850 2848 2846 2845 2844 2842 2841 2840 2838 2837 2835 2834 2833 2831 2830 2828 2827 2826 2825 2824 2823 2822 2821 2820 2819 2818 2818 2817 2817
2957 2955 2954 2953 2951 2950 2949 2947 2946 2945 2943 2941 2940 2938 2935 2934 2932 2930 2928 2926 2925 2923 2920 2919 2917 2915 2912 2910 2909 2908 2908 2908 2905 2901 2898 2894 2890 2888 2887 2884 2881 2878 2875 2870 2865 2862 2862 2865 2864 2861 2856 2854 2853 2851 2850 2847 2845 2843 2841 2840 2839 2837 2836 2834 2833 2831 2830 2829 2827 2826 2825 2823 2822 2821 2820 2819 2818 2816 2816 2815 2814 2813 2812 2811 2810 2810
2955 2954 2952 2951 2950 2948 2946 2945 2944 2942 2941 2939 2938 2936 2934 2932 2930 2928 2926 2924 2922 2920 2918 2916 2914 2912 2910 2908 2905 2904 2904 2905 2903 2899 2895 2891 2887 2885 2884 2881 2877 2875 2872 2868 2863 2857 2853 2854 2857 2858 2855 2850 2847 2845 2844 2842 2839 2837 2835 2833 2832 2830 2829 2828 2826 2824 2823 2822 2821 2820 2818 2817 2816 2815 2814 2813 2812 2811 2810 2810 2809 2808 2806 2805 2805 2804
2953 2951 2950 2949 2947 2946 2944 2943 2941 2940 2939 2937 2935 2934 2932 2930 2928 2926 2924 2922 2920 2918 2916 2914 2912 2910 2908 2906 2904 2902 2901 2901 2899 2896 2892 2888 2884 2881 2880 2877 2874 2871 2869 2865 2861 2856 2850 2846 2847 2850 2850 2847 2843 2840 2838 2836 2834 2831 2829 2827 2825 2824 2823 2821 2820 2818 2817 2816 2815 2814 2812 2811 2810 2810 2809 2808 2807 2806 2805 2805 2804 2803 2801 2800 2799 2798
2950 2949 2947 2946 2945 2943 2942 2940 2939 2937 2936 2935 2933 2931 2930 2928 2926 2924 2922 2920 2918 2916 2914 2911 2909 2907 2905 2903 2901 2900 2899 2898 2895 2892 2889 2885 2881 2878 2876 2874 2870 2867 2864 2861 2858 2854 2849 2844 2841 2841 2841 2841 2839 2835 2832 2830 2828 2826 2824 2822 2820 2818 2817 2816 2814 2812 2811 2810 2809 2808 2807 2806 2805 2805 2804 2803 2802 2801 2801 2800 2800 2799 2797 2795 2794 2793
2947 2946 2944 2943 2941 2940 2939 2937 2936 2935 2933 2932 2930 2929 2927 2925 2924 2922 2920 2918 2915 2914 2911 2909 2906 2904 2902 2900 2899 2897 2897 2895 2893 2890 2885 2882 2878 2874 2872 2870 2867 2864 2860 2857 2854 2850 2846 2843 2840 2837 2834 2833 2833 2832 2829 2825 2823 2821 2819 2817 2815 2813 2811 2810 2809 2807 2806 2805 2804 2802 2802 2801 2800 2800 2799 2798 2797 2796 2796 2795 2795 2794 2793 2791 2790 2789
2944 2942 2941 2940 2938 2937 2936 2935 2933 2932 2930 2929 2928 2926 2925 2923 2921 2920 2918 2915 2913 2911 2909 2906 2904 2902 2899 2897 2895 2894 2894 2893 2891 2887 2883 2879 2875 2871 2868 2866 2864 2861 2856 2853 2850 2847 2843 2839 2837 2835 2830 2827 2826 2826 2825 2821 2818 2815 2814 2812 2810 2808 2806 2805 2804 2802 2801 2800 2799 2798 2797 2796 2795 2794 2793 2793 2792 2791 2791 2790 2790 2789 2788 2787 2786 2785
2940 2939 2938 2936 2935 2934 2932 2931 2930 2929 2927 2926 2925 2924 2922 2920 2919 2917 2915 2913 2911 2909 2906 2904 2901 2899 2897 2895 2893 2891 2890 2889 2888 2885 2881 2877 2873 2869 2865 2862 2860 2858 2854 2849 2845 2843 2840 2835 2833 2831 2828 2824 2820 2819 2818 2817 2814 2811 2809 2808 2806 2804 2802 2801 2800 2798 2796 2795 2794 2793 2792 2791 2790 2789 2788 2787 2787 2786 2785 2785 2785 2784 2784 2783 2782 2781
2936 2935 2934 2933 2931 2930 2929 2928 2927 2926 2925 2923 2922 2921 2919 2918 2916 2914 2912 2910 2909 2906 2904 2902 2900 2897 2895 2893 2891 2889 2887 2886 2884 2882 2879 2875 2871 2867 2863 2859 2856 2854 2851 2846 2841 2838 2835 2832 2828 2825 2824 2821 2817 2814 2811 2810 2809 2807 2805 2804 2802 2800 2798 2797 2796 2794 2791 2790 2789 2788 2787 2786 2785 2784 2783 2783 2782 2781 2780 2780 2780 2780 2779 2778 2778 2776
2933 2932 2931 2930 2928 2927 2926 2925 2924 2923 2921 2920 2919 2918 2916 2915 2913 2911 2910 2908 2906 2904 2902 2899 2897 2895 2893 2891 2889 2887 2885 2883 2881 2879 2875 2872 2868 2864 2860 2856 2853 2850 2848 2844 2839 2835 2831 2828 2824 2820 2818 2816 2814 2811 2808 2805 2803 2801 2800 2799 2798 2796 2794 2793 2791 2789 2787 2785 2784 2783 2782 2781 2780 2779 2778 2778 2777 2776 2775 2775 2775 2775 2774 2773 2773 2772
2930 2929 2927 2926 2925 2924 2923 2922 2920 2920 2919 2917 2916 2915 2913 2911 2910 2908 2906 2905 2903 2901 2899 2896 2894 2893 2891 2889 2887 2885 2883 2880 2878 2875 2872 2869 2865 2861 2857 2853 2849 2846 2843 2840 2836 2832 2829 2824 2820 2817 2814 2810 2808 2806 2804 2802 2800 2797 2795 2794 2793 2792 2790 2789 2786 2784 2782 2780 2779 2777 2776 2776 2775 2774 2773 2773 2772 2771 2770 2770 2769 2769 2769 2768 2767 2767
2926 2925 2925 2923 2922 2921 2920 2919 2918 2916 2915 2914 2913 2912 2910 2908 2906 2905 2903 2902 2900 2897 2895 2893 2891 2889 2888 2886 2885 2882 2880 2877 2875 2872 2869 2865 2861 2857 2853 2850 2845 2842 2839 2836 2833 2829 2825 2820 2816 2813 2810 2807 2803 2800 2799 2798 2796 2795 2792 2789 2787 2786 2786 2785 2782 2780 2778 2776 2775 2773 2771 2771 2770 2769 2768 2768 2767 2766 2765 2765 2764 2764 2763 2763 2762 2761
2924 2923 2922 2920 2919 2918 2917 2916 2915 2914 2913 2911 2910 2909 2907 2905 2903 2902 2900 2898 2896 2894 2892 2889 2887 2885 2884 2883 2881 2879 2876 2874 2871 2868 2865 2862 2858 2854 2850 2846 2842 2838 2835 2831 2828 2825 2822 2817 2813 2809 2807 2804 2800 2797 2795 2794 2793 2792 2789 2786 2783 2781 2781 2780 2779 2777 2775 2773 2771 2769 2767 2766 2765 2764 2763 2762 2762 2761 2761 2760 2759 2759 2758 2758 2757 2756
2921 2920 2919 2918 2917 2915 2914 2913 2912 2911 2910 2909 2907 2906 2904 2902 2900 2898 2896 2895 2893 2890 2888 2886 2884 2882 2880 2879 2878 2876 2873 2870 2867 2864 2861 2858 2854 2850 2846 2842 2838 2835 2830 2827 2823 2820 2817 2815 2810 2806 2803 2800 2797 2794 2791 2790 2790 2789 2787 2784 2780 2778 2776 2775 2775 2774 2771 2769 2767 2766 2764 2762 2760 2759 2758 2757 2756 2756 2756 2755 2755 2754 2753 2753 2752 2751
2918 2917 2916 2915 2914 2913 2912 2911 2910 2909 2907 2906 2905 2903 2901 2899 2897 2895 2893 2891 2889 2887 2885 2882 2880 2878 2876 2875 2874 2872 2870 2867 2864 2861 2857 2854 2850 2846 2842 2839 2835 2831 2828 2824 2819 2815 2813 2811 2808 2804 2800 2798 2795 2792 2788 2787 2786 2785 2784 2782 2779 2775 2772 2771 2771 2771 2768 2766 2764 2762 2760 2758 2756 2755 2753 2752 2751 2751 2750 2750 2750 2750 2749 2748 2747 2746
2915 2915 2914 2912 2911 2910 2909 2908 2907 2906 2905 2904 2902 2900 2898 2896 2894 2892 2890 2887 2885 2883 2881 2879 2877 2875 2873 2871 2870 2868 2865 2863 2861 2857 2854 2850 2846 2843 2839 2835 2832 2828 2825 2821 2816 2812 2809 2806 2804 2802 2799 2796 2793 2790 2787 2785 2783 2782 2780 2779 2777 2774 2771 2769 2768 2767 2765 2763 2761 2759 2757 2755 2753 2750 2749 2748 2747 2746 2745 2745 2745 2744 2744 2743 2742 2741
2913 2912 2911 2910 2909 2908 2907 2905 2905 2903 2902 2901 2899 2897 2895 2894 2891 2889 2886 2884 2882 2880 2878 2876 2873 2871 2869 2868 2866 2864 2861 2859 2857 2854 2850 2847 2843 2840 2836 2832 2828 2825 2821 2818 2814 2810 2807 2803 2800 2798 2797 2795 2792 2789 2786 2784 2781 2779 2778 2776 2775 2772 2769 2767 2766 2764 2762 2760 2758 2756 2754 2752 2750 2747 2745 2744 2743 2742 2741 2740 2740 2739 2739 2739 2738 2737
2910 2909 2908 2907 2906 2905 2904 2903 2902 2901 2900 2898 2897 2895 2893 2891 2888 2886 2884 2881 2879 2877 2875 2873 2871 2868 2866 2864 2862 2859 2857 2855 2852 2850 2847 2844 2840 2837 2833 2829 2825 2821 2817 2814 2811 2808 2805 2802 2798 2796 2794 2791 2789 2787 2785 2783 2780 2777 2775 2773 2772 2769 2767 2765 2764 2762 2760 2757 2755 2753 2751 2749 2746 2744 2741 2740 2739 2738 2737 2737 2736 2735 2734 2734 2733 2733
2908 2907 2906 2905 2904 2903 2902 2900 2899 2898 2897 2895 2894 2892 2890 2888 2886 2883 2881 2879 2876 2874 2872 2870 2868 2866 2864 2861 2858 2855 2852 2850 2847 2845 2843 2840 2837 2833 2830 2825 2822 2818 2815 2811 2807 2804 2802 2800 2797 2795 2792 2789 2786 2784 2783 2782 2779 2775 2772 2770 2769 2767 2765 2763 2762 2760 2757 2755 2753 2750 2749 2746 2744 2741 2739 2737 2735 2734 2734 2733 2732 2731 2730 2730 2729 2728
2905 2904 2903 2902 2901 2900 2899 2898 2897 2895 2894 2893 2891 2890 2888 2885 2883 2880 2878 2876 2874 2872 2870 2868 2865 2863 2861 2858 2855 2852 2849 2846 2843 2841 2839 2835 2832 2829 2825 2821 2818 2814 2810 2807 2805 2801 2799 2796 2795 2793 2791 2788 2785 2781 2780 2779 2777 2774 2770 2768 2766 2764 2762 2760 2759 2757 2755 2753 2750 2748 2746 2744 2741 2739 2736 2734 2732 2731 2730 2730 2729 2728 2727 2726 2725 2725
2903 2902 2901 2900 2899 2898 2897 2895 2894 2893 2891 2890 2888 2887 2885 2883 2881 2878 2876 2874 2871 2870 2867 2865 2863 2860 2858 2855 2853 2850 2846 2843 2840 2838 2835 2831 2828 2825 2821 2817 2813 2810 2806 2803 2801 2798 2795 2793 2792 2791 2789 2786 2783 2780 2777 2775 2773 2771 2768 2765 2763 2761 2759 2757 2756 2755 2752 2750 2748 2746 2744 2742 2740 2737 2735 2732 2730 2728 2727 2726 2726 2725 2725 2724 2722 2721
2900 2900 2899 2897 2896 2895 2894 2893 2891 2890 2889 2887 2885 2884 2882 2880 2878 2876 2874 2871 2869 2867 2865 2863 2860 2857 2855 2852 2849 2846 2843 2840 2837 2835 2832 2828 2825 2820 2817 2813 2809 2805 2801 2799 2796 2794 2792 2790 2789 2789 2788 2785 2782 2778 2774 2772 2770 2767 2765 2763 2761 2759 2757 2755 2754 2752 2750 2748 2746 2744 2742 2740 2738 2735 2733 2730 2727 2725 2725 2724 2723 2723 2722 2721 2720 2719
2898 2897 2896 2895 2894 2893 2891 2890 2889 2887 2886 2884 2883 2881 2879 2877 2875 2874 2871 2869 2867 2865 2863 2860 2858 2855 2852 2849 2846 2843 2840 2838 2835 2831 2828 2825 2821 2817 2813 2810 2806 2802 2798 2794 2791 2789 2788 2785 2784 2784 2785 2785 2782 2777 2773 2770 2767 2765 2762 2760 2759 2757 2755 2753 2752 2750 2748 2746 2745 2742 2740 2738 2736 2734 2732 2729 2726 2723 2722 2721 2720 2720 2720 2720 2718 2717